Location: Ariel
(45.9570°N, 122.5700°W)
Time: 14:47:12
(UTC-07:00)

Altair - Pass Details

Date: 22 July 2019
Orbit: 1501 x 1683 km, 47.2° (Epoch: 24 August)

Event Time Altitude Azimuth Distance (km) Brightness Sun altitude
Rises 17:03:50 0° 285° (WNW) 4,638 10.8 37.3°
Reaches altitude 10° 17:06:50 10° 285° (WNW) 3,661 10.6 36.8°
Maximum altitude 17:16:03 83° 199° (SSW) 1,541 8.2 35.2°
Drops below altitude 10° 17:25:33 10° 113° (ESE) 3,757 9.2 33.5°
Sets 17:28:39 0° 113° (ESE) 4,765 9.6 33.0°
